When you browse on this site, cookies collect data to enhance your experience and personalize the content and advertising you see.
Visit our Privacy Policy to learn more. By continuing to use the site, you agree to this use of cookies and data.
  • Em Portugal
  • Lista de países
  • Para 7 dias
  • Temperatura da água
  • Mapa do tempo
  • Widgets de tempo
  • user-avatar
    Iniciar Sessão

    Previsão horária em Funchal

    Hoje, 22 Fevereiro, Sábado

    Tempo Temperatura Precipitação Vento Pressão Humidade
    00:00 +14°C° 0.1 mm 5 m/s 765 mmHg 84%
    01:00 +15°C° 0.1 mm 6 m/s 765 mmHg 85%
    02:00 +15°C° 0.1 mm 6 m/s 765 mmHg 86%
    03:00 +15°C° 0 mm 6 m/s 765 mmHg 85%
    04:00 +15°C° 0 mm 6 m/s 765 mmHg 84%
    05:00 +15°C° 0 mm 5 m/s 765 mmHg 81%
    06:00 +16°C° 0 mm 6 m/s 765 mmHg 82%
    07:00 +16°C° 0 mm 6 m/s 766 mmHg 83%
    08:00 +17°C° 0 mm 7 m/s 766 mmHg 84%
    09:00 +18°C° 0.1 mm 8 m/s 766 mmHg 80%
    10:00 +20°C° 0.1 mm 8 m/s 766 mmHg 77%
    11:00 +21°C° 0 mm 9 m/s 767 mmHg 68%
    12:00 +22°C° 0 mm 8 m/s 767 mmHg 66%
    13:00 +22°C° 0 mm 8 m/s 766 mmHg 64%
    14:00 +22°C° 0 mm 7 m/s 766 mmHg 61%
    15:00 +22°C° 0 mm 7 m/s 766 mmHg 64%
    16:00 +21°C° 0 mm 7 m/s 766 mmHg 68%
    17:00 +20°C° 0 mm 7 m/s 766 mmHg 71%
    18:00 +20°C° 0 mm 8 m/s 767 mmHg 74%
    19:00 +18°C° 0 mm 8 m/s 767 mmHg 76%
    20:00 +17°C° 0 mm 8 m/s 767 mmHg 79%
    21:00 +17°C° 0 mm 8 m/s 767 mmHg 78%
    22:00 +17°C° 0 mm 8 m/s 767 mmHg 78%
    23:00 +17°C° 0 mm 8 m/s 767 mmHg 77%

    Amanhã, 23 Fevereiro, Domingo

    Tempo Temperatura Precipitação Vento Pressão Humidade
    00:00 +17°C° 0 mm 8 m/s 767 mmHg 78%
    01:00 +17°C° 0 mm 7 m/s 767 mmHg 80%
    02:00 +17°C° 0 mm 7 m/s 767 mmHg 82%
    03:00 +16°C° 0 mm 7 m/s 767 mmHg 80%
    04:00 +16°C° 0 mm 8 m/s 767 mmHg 79%
    05:00 +16°C° 0 mm 8 m/s 767 mmHg 78%
    06:00 +17°C° 0 mm 8 m/s 767 mmHg 78%
    07:00 +17°C° 0 mm 7 m/s 768 mmHg 78%
    08:00 +17°C° 0 mm 7 m/s 768 mmHg 79%
    09:00 +18°C° 0 mm 7 m/s 768 mmHg 73%
    10:00 +21°C° 0 mm 7 m/s 768 mmHg 67%
    11:00 +22°C° 0 mm 7 m/s 769 mmHg 62%
    12:00 +22°C° 0 mm 7 m/s 768 mmHg 62%
    13:00 +22°C° 0 mm 7 m/s 767 mmHg 62%
    14:00 +21°C° 0 mm 7 m/s 767 mmHg 62%
    15:00 +21°C° 0 mm 7 m/s 766 mmHg 65%
    16:00 +20°C° 0 mm 7 m/s 766 mmHg 68%
    17:00 +20°C° 0 mm 7 m/s 766 mmHg 72%
    18:00 +18°C° 0 mm 8 m/s 766 mmHg 72%
    19:00 +18°C° 0 mm 8 m/s 766 mmHg 72%
    20:00 +17°C° 0 mm 8 m/s 766 mmHg 72%
    21:00 +17°C° 0 mm 8 m/s 767 mmHg 71%
    22:00 +17°C° 0 mm 8 m/s 767 mmHg 70%
    23:00 +17°C° 0 mm 8 m/s 767 mmHg 69%

    Depois de amanhã, 24 Fevereiro, Segunda-feira

    Tempo Temperatura Precipitação Vento Pressão Humidade
    00:00 +18°C° 0 mm 8 m/s 766 mmHg 67%
    01:00 +18°C° 0 mm 8 m/s 766 mmHg 66%
    02:00 +18°C° 0 mm 8 m/s 766 mmHg 64%
    03:00 +18°C° 0 mm 8 m/s 766 mmHg 64%
    04:00 +18°C° 0 mm 8 m/s 766 mmHg 63%
    05:00 +18°C° 0 mm 8 m/s 765 mmHg 63%
    06:00 +20°C° 0 mm 8 m/s 766 mmHg 64%
    07:00 +20°C° 0 mm 8 m/s 766 mmHg 64%
    08:00 +20°C° 0 mm 8 m/s 766 mmHg 65%
    09:00 +22°C° 0 mm 7 m/s 767 mmHg 61%
    10:00 +23°C° 0 mm 7 m/s 767 mmHg 57%
    11:00 +24°C° 0 mm 7 m/s 767 mmHg 53%
    12:00 +26°C° 0 mm 7 m/s 767 mmHg 50%
    13:00 +26°C° 0 mm 8 m/s 767 mmHg 47%
    14:00 +26°C° 0 mm 8 m/s 766 mmHg 44%
    15:00 +26°C° 0 mm 7 m/s 766 mmHg 48%
    16:00 +24°C° 0 mm 6 m/s 766 mmHg 53%
    17:00 +23°C° 0 mm 6 m/s 766 mmHg 57%
    18:00 +22°C° 0 mm 5 m/s 767 mmHg 56%
    19:00 +21°C° 0 mm 5 m/s 767 mmHg 56%
    20:00 +20°C° 0 mm 5 m/s 768 mmHg 55%
    21:00 +20°C° 0 mm 5 m/s 768 mmHg 55%
    22:00 +20°C° 0 mm 5 m/s 768 mmHg 54%
    23:00 +20°C° 0 mm 4 m/s 768 mmHg 54%

    25 Fevereiro, Terça-feira

    Tempo Temperatura Precipitação Vento Pressão Humidade
    00:00 +20°C° 0 mm 4 m/s 768 mmHg 53%
    01:00 +20°C° 0 mm 3 m/s 768 mmHg 52%
    02:00 +20°C° 0 mm 3 m/s 768 mmHg 51%
    03:00 +20°C° 0 mm 3 m/s 768 mmHg 55%
    04:00 +20°C° 0 mm 3 m/s 768 mmHg 58%
    05:00 +20°C° 0 mm 3 m/s 768 mmHg 62%
    06:00 +21°C° 0 mm 3 m/s 768 mmHg 60%
    07:00 +22°C° 0 mm 3 m/s 768 mmHg 58%
    08:00 +22°C° 0 mm 4 m/s 768 mmHg 56%
    09:00 +23°C° 0 mm 4 m/s 769 mmHg 53%
    10:00 +25°C° 0 mm 4 m/s 769 mmHg 49%
    11:00 +26°C° 0 mm 4 m/s 769 mmHg 45%
    12:00 +26°C° 0 mm 4 m/s 769 mmHg 45%
    13:00 +27°C° 0 mm 4 m/s 768 mmHg 45%
    14:00 +27°C° 0 mm 4 m/s 768 mmHg 45%
    15:00 +26°C° 0 mm 4 m/s 768 mmHg 50%
    16:00 +25°C° 0 mm 4 m/s 768 mmHg 55%
    17:00 +23°C° 0 mm 4 m/s 768 mmHg 59%
    18:00 +22°C° 0 mm 4 m/s 768 mmHg 61%
    19:00 +21°C° 0 mm 4 m/s 768 mmHg 63%
    20:00 +20°C° 0 mm 4 m/s 769 mmHg 65%
    21:00 +20°C° 0 mm 4 m/s 769 mmHg 65%
    22:00 +20°C° 0 mm 4 m/s 769 mmHg 66%
    23:00 +20°C° 0 mm 4 m/s 769 mmHg 66%

    26 Fevereiro, Quarta-feira

    Tempo Temperatura Precipitação Vento Pressão Humidade
    00:00 +19°C° 0 mm 4 m/s 769 mmHg 67%
    01:00 +19°C° 0 mm 4 m/s 768 mmHg 67%
    02:00 +19°C° 0 mm 4 m/s 768 mmHg 67%
    03:00 +19°C° 0 mm 4 m/s 768 mmHg 68%
    04:00 +18°C° 0 mm 4 m/s 767 mmHg 69%
    05:00 +18°C° 0 mm 4 m/s 767 mmHg 70%
    06:00 +19°C° 0 mm 5 m/s 767 mmHg 68%
    07:00 +19°C° 0 mm 5 m/s 768 mmHg 66%
    08:00 +20°C° 0 mm 5 m/s 768 mmHg 64%
    09:00 +21°C° 0 mm 5 m/s 768 mmHg 62%
    10:00 +22°C° 0 mm 6 m/s 768 mmHg 59%
    11:00 +22°C° 0 mm 6 m/s 768 mmHg 57%
    12:00 +23°C° 0 mm 6 m/s 768 mmHg 57%
    13:00 +23°C° 0 mm 6 m/s 767 mmHg 56%
    14:00 +23°C° 0 mm 7 m/s 767 mmHg 55%
    15:00 +22°C° 0 mm 6 m/s 767 mmHg 58%
    16:00 +21°C° 0 mm 6 m/s 766 mmHg 61%
    17:00 +20°C° 0 mm 6 m/s 766 mmHg 64%
    18:00 +19°C° 0 mm 6 m/s 766 mmHg 70%
    19:00 +17°C° 0 mm 6 m/s 766 mmHg 75%
    20:00 +17°C° 0 mm 6 m/s 767 mmHg 81%
    21:00 +16°C° 0 mm 6 m/s 767 mmHg 82%
    22:00 +16°C° 0 mm 5 m/s 766 mmHg 84%
    23:00 +16°C° 0 mm 5 m/s 766 mmHg 85%

    27 Fevereiro, Quinta-feira

    Tempo Temperatura Precipitação Vento Pressão Humidade
    00:00 +16°C° 0 mm 5 m/s 766 mmHg 85%
    01:00 +17°C° 0 mm 4 m/s 766 mmHg 86%
    02:00 +15°C° 0 mm 4 m/s 765 mmHg 86%
    03:00 +15°C° 0 mm 4 m/s 765 mmHg 87%
    04:00 +15°C° 0 mm 4 m/s 765 mmHg 87%
    05:00 +17°C° 0 mm 4 m/s 764 mmHg 88%
    06:00 +17°C° 0 mm 4 m/s 765 mmHg 86%
    07:00 +17°C° 0 mm 4 m/s 765 mmHg 85%
    08:00 +16°C° 0 mm 5 m/s 765 mmHg 83%
    09:00 +18°C° 0 mm 4 m/s 765 mmHg 80%
    10:00 +19°C° 0 mm 4 m/s 765 mmHg 76%
    11:00 +20°C° 0 mm 4 m/s 765 mmHg 72%
    12:00 +21°C° 0 mm 4 m/s 764 mmHg 70%
    13:00 +21°C° 0 mm 5 m/s 764 mmHg 68%
    14:00 +22°C° 0 mm 6 m/s 763 mmHg 66%
    15:00 +21°C° 0 mm 5 m/s 763 mmHg 70%
    16:00 +20°C° 0 mm 5 m/s 762 mmHg 74%
    17:00 +20°C° 0 mm 4 m/s 762 mmHg 78%
    18:00 +19°C° 0 mm 4 m/s 762 mmHg 80%
    19:00 +18°C° 0 mm 4 m/s 763 mmHg 82%
    20:00 +17°C° 0 mm 4 m/s 763 mmHg 84%
    21:00 +17°C° 0 mm 4 m/s 763 mmHg 81%
    22:00 +17°C° 0 mm 4 m/s 763 mmHg 78%
    23:00 +17°C° 0 mm 4 m/s 763 mmHg 75%
    Mostrar mais